Regional Weather Roundup
Issued by NWS

Home | Current Version | Previous Version | Text Only | Print | Product List | Glossary On
Versions: 1 2 3 4 5 6 7 8 9 10 11 12 13 14 15 16 17 18 19 20 21 22 23 24 25 26 27 28 29 30 31 32 33 34 35 36 37 38 39 40 41 42 43 44 45 46 47 48 49 50
000
ASUS43 KLSX 311510
RWRMO

WEATHER SUMMARY FOR MISSOURI
NATIONAL WEATHER SERVICE SPRINGFIELD MO
1000 AM CDT MON AUG 31 2015

NOTE: "FAIR" INDICATES FEW OR NO CLOUDS BELOW 12,000 FEET WITH NO
       SIGNIFICANT WEATHER AND/OR OBSTRUCTIONS TO VISIBILITY.
       CURRENT SKY AND/OR WEATHER CONDITIONS ARE NOT AVAILABLE FOR
       CHILLICOTHE AND FARMINGTON.

MOZ001>031-035>038-043-044-053-054-311600-
...NORTHERN AND WESTERN MISSOURI...

CITY           SKY/WX    TMP DP  RH WIND       PRES   REMARKS
KANSAS CTY INT SUNNY     79  72  79 S7        30.00R
KANSAS C DTWN  SUNNY     80  72  76 S6        29.99R
LEE`S SUMMIT   SUNNY     77  69  76 S7        30.01S
ST JOSEPH      SUNNY     77  73  87 S5        29.99R FOG
CHILLICOTHE      N/A     79  72  79 S6        30.01S
KIRKSVILLE     SUNNY     80  71  74 S6        30.04S

$$
MOZ066>068-077>081-088>096-101>105-311600-
...SOUTHWEST MISSOURI...

CITY           SKY/WX    TMP DP  RH WIND       PRES   REMARKS
SPRINGFIELD    SUNNY     79  68  69 S14       30.07R
JOPLIN         SUNNY     80  68  66 S12       30.04R

$$
MOZ032>034-039>042-045>050-055>058-069>072-311600-
...CENTRAL MISSOURI...

CITY           SKY/WX    TMP DP  RH WIND       PRES   REMARKS
COLUMBIA       SUNNY     79  71  76 S8        30.06R
JEFFERSON CITY SUNNY     79  69  71 S8        30.05R
ROLLA          MOSUNNY   80  70  71 S9        30.07S
SEDALIA        SUNNY     82  69  64 S9        30.05R
WHITEMAN AFB   SUNNY     80  70  70 SW12      30.01S
WARRENSBURG    SUNNY     79  68  69 S8        30.02R
OSAGE BEACH    SUNNY     81  70  69 SE6       30.06S

$$
MOZ051-052-059>065-311600-
...EAST CENTRAL MISSOURI...

CITY           SKY/WX    TMP DP  RH WIND       PRES   REMARKS
ST LOUIS INTL  MOSUNNY   84  69  60 S8        30.08R
SPIRIT OF STL  SUNNY     81  71  71 SW7       30.05S
ST CHARLES     SUNNY     80  72  76 VRB5      30.06S

$$
MOZ072>076-082>087-097>100-106>115-311600-
...SOUTH CENTRAL AND SOUTHEAST MISSOURI...

CITY           SKY/WX    TMP DP  RH WIND       PRES   REMARKS
CAPE GIRARDEAU SUNNY     78  69  73 SW5       30.11S
FARMINGTON     SUNNY     77  72  83 SW12      30.12F
POPLAR BLUFF   MOSUNNY   76  70  82 SW5       30.10S
WEST PLAINS    SUNNY     76  69  79 S6        30.13R

$$


USA.gov is the U.S. government's official web portal to all federal, state and local government web resources and services.